FW7740 Weather Reports


time (UTC)temp
C
wind
direction
speed
KPH
gust
KPH
rain 1hr
cm
rain 24hr
cm
rain mn
cm
humidity
%
barometer
mb
20260510202718 22 336 1.6 1.6 0.00 0.00 0.00 31 1021.5
20260510202213 21 348 3.2 4.8 0.00 0.00 0.00 32 1021.5
20260510201711 21 334 4.8 4.8 0.00 0.00 0.00 31 1021.1
20260510201207 22 340 8.0 9.7 0.00 0.00 0.00 28 1021.5
20260510200704 22 46 8.0 9.7 0.00 0.00 0.00 30 1021.5
20260510200202 22 306 3.2 4.8 0.00 0.00 0.00 31 1021.5
20260510195659 22 348 0.0 1.6 0.00 0.00 0.00 31 1021.5
20260510195155 22 348 1.6 3.2 0.00 0.00 0.00 32 1021.5
20260510194654 22 348 1.6 3.2 0.00 0.00 0.00 32 1021.5
20260510194151 22 75 9.7 12.9 0.00 0.00 0.00 32 1021.5
20260510193646 22 339 4.8 4.8 0.00 0.00 0.00 33 1021.5
20260510193142 22 355 1.6 3.2 0.00 0.00 0.00 32 1021.5
20260510192637 22 336 6.4 8.0 0.00 0.00 0.00 32 1021.5
20260510192133 22 348 4.8 8.0 0.00 0.00 0.00 33 1021.5
20260510191630 21 338 8.0 9.7 0.00 0.00 0.00 32 1021.5
20260510191126 22 343 9.7 11.3 0.00 0.00 0.00 31 1021.8
20260510190623 22 333 3.2 4.8 0.00 0.00 0.00 33 1021.5
20260510190121 21 359 4.8 4.8 0.00 0.00 0.00 32 1021.5
20260510185617 22 359 9.7 12.9 0.00 0.00 0.00 31 1021.5
20260510185115 22 301 4.8 4.8 0.00 0.00 0.00 31 1021.5
20260510184612 22 335 3.2 3.2 0.00 0.00 0.00 30 1021.5
20260510184108 22 93 6.4 9.7 0.00 0.00 0.00 32 1021.5
20260510183603 22 355 6.4 4.8 0.00 0.00 0.00 30 1021.5
20260510183058 22 350 1.6 1.6 0.00 0.00 0.00 32 1021.5
20260510182555 22 306 1.6 1.6 0.00 0.00 0.00 32 1021.5
20260510182050 21 352 8.0 9.7 0.00 0.00 0.00 32 1021.5
20260510181548 21 304 4.8 4.8 0.00 0.00 0.00 30 1021.1
20260510181044 21 2 6.4 9.7 0.00 0.00 0.00 30 1021.1
20260510180541 21 77 4.8 8.0 0.00 0.00 0.00 30 1021.1
20260510180039 22 1 3.2 3.2 0.00 0.00 0.00 29 1021.5
20260510175538 22 346 4.8 4.8 0.00 0.00 0.00 31 1021.1
20260510175035 21 338 3.2 3.2 0.00 0.00 0.00 31 1021.1
20260510174533 21 277 4.8 8.0 0.00 0.00 0.00 31 1021.5
20260510174030 21 277 4.8 8.0 0.00 0.00 0.00 31 1021.1
20260510173525 21 18 9.7 11.3 0.00 0.00 0.00 31 1021.1
20260510173022 21 329 9.7 11.3 0.00 0.00 0.00 31 1021.1
20260510172518 21 350 4.8 8.0 0.00 0.00 0.00 32 1021.1
20260510172015 21 347 6.4 8.0 0.00 0.00 0.00 32 1020.8
20260510171511 21 18 6.4 8.0 0.00 0.00 0.00 31 1021.1
20260510171008 21 34 4.8 3.2 0.00 0.00 0.00 31 1020.8
20260510170504 21 328 3.2 4.8 0.00 0.00 0.00 33 1021.1
20260510170001 21 323 6.4 8.0 0.00 0.00 0.00 33 1020.8
20260510165457 21 337 3.2 1.6 0.00 0.00 0.00 37 1021.1
20260510164954 20 358 6.4 8.0 0.00 0.00 0.00 34 1020.8
20260510164451 20 332 8.0 9.7 0.00 0.00 0.00 34 1021.1
20260510163946 20 351 6.4 4.8 0.00 0.00 0.00 34 1020.8
20260510163442 21 68 4.8 8.0 0.00 0.00 0.00 32 1021.1
20260510162937 20 352 4.8 9.7 0.00 0.00 0.00 32 1020.8
20260510162434 20 14 4.8 4.8 0.00 0.00 0.00 33 1020.8
20260510161930 20 359 11.3 12.9 0.00 0.00 0.00 32 1020.8
20260510161426 20 359 11.3 12.9 0.00 0.00 0.00 32 1020.8
20260510160924 20 330 4.8 9.7 0.00 0.00 0.00 37 1020.8
20260510160420 19 5 3.2 3.2 0.00 0.00 0.00 36 1020.8
20260510155913 19 325 3.2 3.2 0.00 0.00 0.00 35 1020.4
20260510155410 19 328 0.0 0.0 0.00 0.00 0.00 36 1020.8
20260510154906 19 342 6.4 9.7 0.00 0.00 0.00 36 1020.8
20260510154403 19 343 1.6 3.2 0.00 0.00 0.00 39 1020.8
20260510153856 19 328 8.0 11.3 0.00 0.00 0.00 38 1020.8
20260510153353 19 311 4.8 4.8 0.00 0.00 0.00 39 1020.8
20260510152850 18 351 1.6 1.6 0.00 0.00 0.00 41 1020.4
20260510152347 18 322 3.2 3.2 0.00 0.00 0.00 40 1020.8
20260510151843 18 58 4.8 8.0 0.00 0.00 0.00 39 1020.8
20260510151341 18 16 8.0 9.7 0.00 0.00 0.00 41 1021.1
20260510150837 18 331 4.8 4.8 0.00 0.00 0.00 41 1021.1
20260510150333 18 17 3.2 3.2 0.00 0.00 0.00 41 1021.5
20260510145829 18 13 3.2 3.2 0.00 0.00 0.00 40 1021.1
20260510145325 18 322 12.9 14.5 0.00 0.00 0.00 43 1021.1
20260510144822 18 312 4.8 3.2 0.00 0.00 0.00 44 1020.8
20260510144319 17 337 4.8 8.0 0.00 0.00 0.00 44 1021.1
20260510143819 17 322 6.4 8.0 0.00 0.00 0.00 49 1020.8
20260510143316 17 359 3.2 3.2 0.00 0.00 0.00 45 1020.8
20260510142813 17 65 3.2 3.2 0.00 0.00 0.00 46 1021.1
20260510142309 17 337 1.6 3.2 0.00 0.00 0.00 46 1021.1
20260510141806 17 0 4.8 4.8 0.00 0.00 0.00 46 1020.8
20260510141303 17 358 4.8 4.8 0.00 0.00 0.00 48 1020.8
20260510140801 17 5 1.6 1.6 0.00 0.00 0.00 47 1020.4
20260510140256 17 12 4.8 4.8 0.00 0.00 0.00 47 1020.4
20260510135755 16 328 1.6 1.6 0.00 0.00 0.00 52 1020.1
20260510135252 16 349 3.2 3.2 0.00 0.00 0.00 51 1020.1
20260510134750 16 343 4.8 4.8 0.00 0.00 0.00 52 1020.1
20260510134246 16 334 1.6 3.2 0.00 0.00 0.00 53 1019.8
20260510133742 16 333 1.6 1.6 0.00 0.00 0.00 55 1019.8
20260510133238 17 7 9.7 11.3 0.00 0.00 0.00 54 1019.4
20260510132733 17 344 1.6 1.6 0.00 0.00 0.00 55 1019.8
20260510132232 17 333 4.8 4.8 0.00 0.00 0.00 55 1019.8
20260510131728 17 345 0.0 0.0 0.00 0.00 0.00 59 1019.8
20260510131226 16 339 4.8 3.2 0.00 0.00 0.00 61 1019.8
20260510130722 16 24 4.8 4.8 0.00 0.00 0.00 63 1019.4
20260510130220 16 4 3.2 3.2 0.00 0.00 0.00 63 1019.4
20260510125715 16 354 1.6 1.6 0.00 0.00 0.00 63 1019.1
20260510125212 16 350 1.6 1.6 0.00 0.00 0.00 63 1019.1
20260510124709 16 331 1.6 1.6 0.00 0.00 0.00 65 1019.1
20260510124206 16 309 3.2 3.2 0.00 0.00 0.00 64 1019.1
20260510123701 16 334 4.8 3.2 0.00 0.00 0.00 66 1019.1
20260510123158 16 321 3.2 3.2 0.00 0.00 0.00 68 1019.1
20260510122654 15 325 4.8 4.8 0.00 0.00 0.00 71 1019.1
20260510122150 15 336 4.8 3.2 0.00 0.00 0.00 73 1019.1
20260510121647 15 317 4.8 3.2 0.00 0.00 0.00 77 1019.1
20260510121144 15 345 1.6 1.6 0.00 0.00 0.00 80 1018.4
20260510120642 15 346 0.0 0.0 0.00 0.00 0.00 83 1018.8
20260510120137 13 347 0.0 1.6 0.00 0.00 0.00 88 1018.4
20260510115634 13 350 0.0 0.0 0.00 0.00 0.00 94 1018.4
20260510115132 12 350 0.0 0.0 0.00 0.00 0.00 94 1018.1
20260510114627 12 350 0.0 0.0 0.00 0.00 0.00 94 1018.1
20260510114124 12 351 0.0 0.0 0.00 0.00 0.00 95 1017.6
20260510113619 12 339 0.0 0.0 0.00 0.00 0.00 95 1018.1
20260510113116 12 339 0.0 0.0 0.00 0.00 0.00 95 1017.6
20260510112613 12 339 0.0 0.0 0.00 0.00 0.00 95 1018.1
20260510112109 12 339 0.0 0.0 0.00 0.00 0.00 95 1017.6
20260510111606 12 339 0.0 0.0 0.00 0.00 0.00 95 1017.6
20260510111101 12 339 0.0 0.0 0.00 0.00 0.00 95 1017.6
20260510110553 12 339 0.0 0.0 0.00 0.00 0.00 95 1018.1
20260510110049 12 329 0.0 0.0 0.00 0.00 0.00 95 1017.6
20260510105544 12 306 0.0 0.0 0.00 0.00 0.00 95 1017.6
20260510105040 12 306 0.0 0.0 0.00 0.00 0.00 95 1018.1
20260510104536 12 306 0.0 0.0 0.00 0.00 0.00 95 1017.6
20260510104032 12 306 0.0 0.0 0.00 0.00 0.00 95 1017.6
20260510103531 12 306 0.0 0.0 0.00 0.00 0.00 95 1017.6
20260510103026 12 306 0.0 0.0 0.00 0.00 0.00 95 1017.3
20260510102522 12 306 0.0 0.0 0.00 0.00 0.00 95 1017.0
20260510102018 12 306 0.0 0.0 0.00 0.00 0.00 95 1017.0
20260510101516 12 306 0.0 0.0 0.00 0.00 0.00 95 1017.3
20260510101015 12 306 0.0 0.0 0.00 0.00 0.00 95 1017.0
20260510100510 12 306 0.0 0.0 0.00 0.00 0.00 95 1016.6
20260510100007 12 306 0.0 0.0 0.00 0.00 0.00 95 1016.6
20260510095503 12 306 0.0 0.0 0.00 0.00 0.00 95 1017.0
20260510095002 12 306 0.0 0.0 0.00 0.00 0.00 95 1016.3
20260510094456 12 306 0.0 0.0 0.00 0.00 0.00 95 1016.3
20260510093953 12 306 0.0 0.0 0.00 0.00 0.00 95 1016.3
20260510093448 12 306 0.0 0.0 0.00 0.00 0.00 94 1016.6
20260510092945 12 306 0.0 0.0 0.00 0.00 0.00 94 1016.3
20260510092442 12 306 0.0 0.0 0.00 0.00 0.00 94 1016.3
20260510091936 12 306 0.0 0.0 0.00 0.00 0.00 94 1016.3
20260510091434 12 306 0.0 0.0 0.00 0.00 0.00 94 1015.9
20260510090930 12 306 0.0 0.0 0.00 0.00 0.00 94 1016.3
20260510090427 12 306 0.0 0.0 0.00 0.00 0.00 94 1015.9
20260510085923 12 306 0.0 0.0 0.00 0.00 0.00 93 1015.9
20260510085418 13 306 0.0 0.0 0.00 0.00 0.00 93 1015.9
20260510084913 13 306 0.0 0.0 0.00 0.00 0.00 93 1015.9
20260510084411 12 306 0.0 0.0 0.00 0.00 0.00 93 1015.9
20260510083908 12 306 0.0 0.0 0.00 0.00 0.00 93 1015.9
20260510083404 13 306 0.0 0.0 0.00 0.00 0.00 93 1015.6
20260510082900 13 306 0.0 0.0 0.00 0.00 0.00 93 1015.9
20260510082357 13 306 0.0 0.0 0.00 0.00 0.00 94 1015.6
20260510081856 12 306 0.0 0.0 0.00 0.00 0.00 93 1015.6
20260510081352 12 306 0.0 0.0 0.00 0.00 0.00 93 1015.6
20260510080849 13 306 0.0 0.0 0.00 0.00 0.00 93 1015.6
20260510080348 13 306 0.0 0.0 0.00 0.00 0.00 93 1015.3
20260510075845 13 306 0.0 0.0 0.00 0.00 0.00 93 1015.3
20260510075343 13 306 0.0 0.0 0.00 0.00 0.00 93 1014.9
20260510074839 13 306 0.0 0.0 0.00 0.00 0.00 93 1015.6
20260510074337 13 306 0.0 0.0 0.00 0.00 0.00 92 1015.3
20260510073833 13 306 0.0 0.0 0.00 0.00 0.00 92 1015.3
20260510073324 13 306 0.0 0.0 0.00 0.00 0.00 93 1015.3
20260510072820 13 306 0.0 0.0 0.00 0.00 0.00 93 1015.3
20260510072316 13 306 0.0 0.0 0.00 0.00 0.00 93 1015.3
20260510071813 13 306 0.0 0.0 0.00 0.00 0.00 93 1015.3
20260510071308 13 306 0.0 0.0 0.00 0.00 0.00 93 1015.6
20260510070808 13 306 0.0 0.0 0.00 0.00 0.00 93 1015.3
20260510070304 13 307 0.0 0.0 0.00 0.00 0.00 93 1015.3
20260510065804 13 307 0.0 0.0 0.00 0.00 0.00 93 1015.3
20260510065301 13 306 0.0 0.0 0.00 0.00 0.00 92 1015.3
20260510064758 13 306 0.0 0.0 0.00 0.00 0.00 92 1015.3
20260510064256 13 306 0.0 0.0 0.00 0.00 0.00 92 1015.3
20260510063751 13 306 0.0 0.0 0.00 0.00 0.00 91 1015.3
20260510063248 13 306 0.0 0.0 0.00 0.00 0.00 91 1014.9
20260510062745 13 306 0.0 0.0 0.00 0.00 0.00 90 1014.9
20260510062241 13 307 1.6 1.6 0.00 0.00 0.00 90 1014.9
20260510061736 13 307 0.0 0.0 0.00 0.00 0.00 89 1014.9
20260510061233 13 307 0.0 0.0 0.00 0.00 0.00 89 1014.9
20260510060729 13 307 0.0 0.0 0.00 0.00 0.00 89 1014.9
20260510060226 14 307 0.0 0.0 0.00 0.00 0.00 89 1014.6
20260510055723 14 307 0.0 0.0 0.00 0.00 0.00 89 1014.6
20260510055222 14 291 3.2 3.2 0.00 0.00 0.00 90 1014.6
20260510054721 14 299 1.6 3.2 0.00 0.00 0.00 91 1014.6
20260510054217 14 313 0.0 0.0 0.00 0.00 0.00 91 1014.9
20260510053711 14 313 0.0 0.0 0.00 0.00 0.00 91 1014.9
20260510053208 14 314 0.0 0.0 0.00 0.00 0.00 91 1015.3
20260510052703 13 314 0.0 0.0 0.00 0.00 0.00 91 1015.3
20260510052200 13 314 0.0 0.0 0.00 0.00 0.00 91 1014.9
20260510051655 13 314 0.0 0.0 0.00 0.00 0.00 91 1014.9
20260510051152 13 314 0.0 0.0 0.00 0.00 0.00 91 1014.9
20260510050650 13 314 0.0 0.0 0.00 0.00 0.00 91 1014.9
20260510050147 13 314 0.0 0.0 0.00 0.00 0.00 91 1014.6
20260510045643 13 314 0.0 0.0 0.00 0.03 0.03 91 1014.6
20260510045140 14 314 0.0 0.0 0.00 0.03 0.03 90 1014.6
20260510044636 14 314 0.0 0.0 0.00 0.03 0.03 90 1014.6
20260510044134 14 314 0.0 0.0 0.00 0.03 0.03 89 1014.2
20260510043629 15 314 0.0 0.0 0.00 0.03 0.03 88 1014.2
20260510043126 15 317 0.0 0.0 0.00 0.03 0.03 88 1014.2
20260510042624 15 318 0.0 0.0 0.00 0.03 0.03 88 1014.6
20260510042119 15 318 0.0 0.0 0.00 0.03 0.03 87 1014.2
20260510041617 15 318 1.6 1.6 0.00 0.03 0.03 88 1013.8
20260510041114 15 350 0.0 0.0 0.00 0.03 0.03 87 1014.2
20260510040612 15 350 0.0 0.0 0.00 0.03 0.03 88 1014.2
20260510040108 15 343 0.0 0.0 0.00 0.03 0.03 88 1013.8
20260510035604 14 326 1.6 1.6 0.00 0.03 0.03 88 1013.8
20260510035103 13 305 3.2 3.2 0.00 0.03 0.03 92 1013.8
20260510034601 13 348 4.8 4.8 0.00 0.03 0.03 90 1013.5
20260510034058 13 305 0.0 0.0 0.00 0.03 0.03 92 1013.5
20260510033555 13 305 0.0 0.0 0.00 0.03 0.03 91 1013.1
20260510033052 14 305 0.0 0.0 0.00 0.03 0.03 91 1013.1
20260510032549 14 305 0.0 0.0 0.00 0.03 0.03 90 1013.1
20260510032044 14 304 0.0 0.0 0.00 0.03 0.03 90 1012.8
20260510031544 14 304 0.0 0.0 0.00 0.03 0.03 90 1013.1
20260510031041 15 315 0.0 0.0 0.00 0.03 0.03 90 1012.8
20260510030536 15 316 0.0 0.0 0.00 0.03 0.03 90 1013.1
20260510030034 15 316 0.0 0.0 0.00 0.03 0.03 90 1012.8
20260510025531 15 316 0.0 0.0 0.00 0.03 0.03 89 1013.1
20260510025029 15 316 0.0 0.0 0.00 0.03 0.03 88 1012.8
20260510024525 15 316 0.0 0.0 0.00 0.03 0.03 89 1012.8
20260510024021 15 316 0.0 0.0 0.00 0.03 0.03 88 1012.8
20260510023517 15 316 0.0 0.0 0.00 0.03 0.03 86 1012.5
20260510023015 15 316 0.0 0.0 0.00 0.03 0.03 87 1012.5
20260510022514 15 316 0.0 0.0 0.00 0.03 0.03 86 1012.1
20260510022014 15 316 0.0 0.0 0.00 0.03 0.03 85 1012.1
20260510021511 16 316 0.0 0.0 0.00 0.03 0.03 84 1012.1
20260510021008 16 316 0.0 0.0 0.00 0.03 0.03 82 1011.8
20260510020502 16 316 0.0 0.0 0.00 0.03 0.03 82 1011.8
20260510015958 16 316 0.0 0.0 0.00 0.03 0.03 82 1011.8
20260510015454 16 323 0.0 0.0 0.00 0.03 0.03 81 1011.8
20260510014949 17 323 0.0 0.0 0.00 0.03 0.03 80 1011.8
20260510014447 17 329 0.0 0.0 0.00 0.03 0.03 80 1011.4
20260510013944 17 329 0.0 0.0 0.00 0.03 0.03 79 1011.4
20260510013438 17 329 0.0 0.0 0.00 0.03 0.03 78 1011.4
20260510012934 17 329 0.0 0.0 0.00 0.03 0.03 76 1011.4
20260510012429 18 311 0.0 0.0 0.00 0.03 0.03 76 1011.1
20260510011924 18 311 0.0 0.0 0.00 0.03 0.03 74 1010.8
20260510011419 18 327 0.0 0.0 0.00 0.03 0.03 74 1010.8
20260510010916 19 327 0.0 0.0 0.00 0.03 0.03 72 1011.1
20260510010413 20 327 0.0 0.0 0.00 0.03 0.03 71 1010.8
20260510005909 20 327 0.0 0.0 0.00 0.03 0.03 68 1010.8
20260510005406 20 327 0.0 0.0 0.00 0.03 0.03 67 1010.8
20260510004903 20 326 0.0 0.0 0.00 0.03 0.03 64 1011.1
20260510004401 21 326 0.0 0.0 0.00 0.03 0.03 63 1010.8
20260510003858 21 326 0.0 0.0 0.00 0.03 0.03 62 1010.8
20260510003355 21 326 0.0 0.0 0.00 0.03 0.03 59 1010.4
20260510002854 21 326 0.0 0.0 0.00 0.03 0.03 58 1010.8
20260510002351 21 326 0.0 0.0 0.00 0.03 0.03 58 1010.8
20260510001848 21 326 0.0 0.0 0.00 0.03 0.03 57 1010.8
20260510001346 21 326 0.0 0.0 0.00 0.03 0.03 55 1010.4
20260510000842 22 326 0.0 0.0 0.00 0.03 0.03 55 1010.4
20260510000341 22 326 0.0 0.0 0.00 0.03 0.03 52 1010.4
20260509235836 22 326 0.0 0.0 0.00 0.03 0.03 50 1010.4
20260509235332 22 326 0.0 0.0 0.00 0.03 0.03 50 1010.8
20260509234828 23 326 0.0 0.0 0.00 0.03 0.03 48 1010.8
20260509234326 23 326 0.0 0.0 0.00 0.03 0.03 47 1010.4
20260509233823 23 326 0.0 0.0 0.00 0.03 0.03 47 1010.8
20260509233321 23 326 0.0 0.0 0.00 0.03 0.03 45 1010.8
20260509232816 24 325 0.0 0.0 0.00 0.03 0.03 42 1010.4
20260509232314 24 325 0.0 0.0 0.00 0.03 0.03 44 1010.4
20260509231810 25 325 0.0 0.0 0.00 0.03 0.03 40 1010.4
20260509231307 25 325 0.0 0.0 0.00 0.03 0.03 38 1010.8
20260509230805 25 325 0.0 0.0 0.00 0.03 0.03 38 1010.4
20260509230302 25 325 0.0 0.0 0.00 0.03 0.03 36 1010.4
20260509225757 26 325 1.6 1.6 0.00 0.03 0.03 38 1010.4
20260509225254 25 311 3.2 3.2 0.00 0.03 0.03 34 1010.4
20260509224749 25 322 0.0 0.0 0.00 0.03 0.03 37 1010.1
20260509224247 25 321 1.6 1.6 0.00 0.03 0.03 36 1010.4
20260509223743 26 323 0.0 0.0 0.00 0.03 0.03 37 1010.4
20260509223240 26 323 1.6 1.6 0.00 0.03 0.03 36 1010.4
20260509222737 26 324 0.0 0.0 0.00 0.03 0.03 33 1010.4
20260509222232 26 336 0.0 0.0 0.00 0.03 0.03 34 1010.4
20260509221728 26 316 3.2 3.2 0.00 0.03 0.03 36 1010.4
20260509221225 26 339 1.6 1.6 0.00 0.03 0.03 34 1010.1
20260509220720 27 324 1.6 1.6 0.00 0.03 0.03 34 1010.4
20260509220218 27 346 0.0 0.0 0.00 0.03 0.03 32 1010.4
20260509215713 27 324 0.0 0.0 0.00 0.03 0.03 33 1010.4
20260509215210 28 332 0.0 0.0 0.00 0.03 0.03 31 1010.4
20260509214707 28 349 0.0 0.0 0.00 0.03 0.03 29 1010.4
20260509214204 28 323 1.6 1.6 0.00 0.03 0.03 28 1010.4
20260509213701 28 323 0.0 0.0 0.00 0.03 0.03 27 1010.4
20260509213156 28 325 0.0 0.0 0.00 0.03 0.03 25 1010.4
20260509212654 28 315 0.0 0.0 0.00 0.03 0.03 30 1010.8
20260509212151 29 0 4.8 8.0 0.00 0.03 0.03 25 1010.8
20260509211646 29 333 0.0 0.0 0.00 0.03 0.03 27 1010.4
20260509211143 29 326 1.6 1.6 0.00 0.03 0.03 30 1010.8
20260509210641 30 343 1.6 0.0 0.00 0.03 0.03 29 1010.8
20260509210137 30 328 1.6 1.6 0.00 0.03 0.03 29 1010.8
20260509205632 29 330 0.0 1.6 0.00 0.03 0.03 28 1010.4
20260509205127 28 329 0.0 0.0 0.00 0.03 0.03 31 1010.8
20260509204623 29 324 3.2 3.2 0.00 0.03 0.03 27 1010.8
20260509204119 28 18 1.6 3.2 0.00 0.03 0.03 29 1010.8
20260509203616 28 88 6.4 8.0 0.00 0.03 0.03 26 1010.8
20260509203109 29 343 0.0 1.6 0.00 0.03 0.03 28 1011.1